DW3733 Luzzi (cosenza) IT current weather conditions

sailwx.info

Wind from 135 at 0 knots gusting 2

Air temperature 12.8° C
Dewpoint 12.2° C

Last reported at 2018-Apr-24 00:03 UTC.
Time now 2018-Apr-24 00:55 UTC

Location: N 39°27' E 016°16'.
View on Google Maps.

See reports from other nearby stations

  
Tides and Currents Weather Stations Pressure Air Temp Water Temp Dewpoint Dewpoint Depression Visibility Wind Speed Wind Dir Waves Ship Positions
date/time (UTC)wind fromknots sea level pressurealtimeterstation pressurevisibilityair tempwater tempwave heightnotes
2018-Apr-24 00:03 135 0 gusting 2 12.8
2018-Apr-23 23:53 135 0 gusting 2 13.3
2018-Apr-23 23:43 120 1 gusting 2 13.3
2018-Apr-23 23:33 178 0 gusting 2 13.3
2018-Apr-23 23:23 090 1 gusting 2 13.9
2018-Apr-23 23:13 090 1 gusting 2 13.9
2018-Apr-23 23:03 090 0 gusting 2 13.9
2018-Apr-23 22:53 090 0 gusting 2 13.9
2018-Apr-23 22:43 090 1 gusting 2 13.3
2018-Apr-23 22:33 090 1 gusting 2 13.3
2018-Apr-23 22:23 090 0 gusting 2 13.3
2018-Apr-23 22:13 090 0 gusting 1 13.3
2018-Apr-23 22:03 090 0 gusting 1 13.3
2018-Apr-23 21:53 090 0 gusting 2 13.3
2018-Apr-23 21:43 086 1 gusting 2 13.3
2018-Apr-23 21:33 095 0 gusting 2 13.3
2018-Apr-23 21:23 110 0 gusting 2 13.9
2018-Apr-23 21:13 090 1 gusting 2 13.9
2018-Apr-23 21:03 105 0 gusting 2 13.9
2018-Apr-23 20:53 100 0 gusting 2 13.9
2018-Apr-23 20:43 116 0 gusting 2 13.9
2018-Apr-23 20:33 090 0 gusting 2 15.0
2018-Apr-23 20:23 135 0 gusting 1 15.6
2018-Apr-23 20:13 135 0 gusting 1 15.6
2018-Apr-23 20:03 090 0 gusting 2 15.6
2018-Apr-23 19:53 160 0 gusting 1 16.1
2018-Apr-23 19:43 135 0 gusting 1 16.1
2018-Apr-23 19:33 123 0 gusting 1 16.7
2018-Apr-23 19:23 170 0 gusting 2 17.8
2018-Apr-23 19:13 180 0 gusting 2 17.8
2018-Apr-23 19:03 168 0 gusting 4 18.3
2018-Apr-23 18:53 225 2 gusting 5 18.3
2018-Apr-23 18:43 227 0 gusting 2 18.3
2018-Apr-23 18:33 215 0 gusting 5 18.9
2018-Apr-23 18:23 238 1 gusting 5 19.4
2018-Apr-23 18:13 214 2 gusting 6 19.4
2018-Apr-23 18:03 225 2 gusting 5 20.0
2018-Apr-23 17:53 236 2 gusting 6 20.0
2018-Apr-23 17:43 225 3 gusting 6 20.6
2018-Apr-23 17:33 148 2 gusting 6 21.1
2018-Apr-23 17:23 254 2 gusting 6 21.1
2018-Apr-23 17:14 197 4 gusting 7 21.7
2018-Apr-23 17:03 190 5 gusting 8 21.7
2018-Apr-23 16:53 184 4 gusting 8 21.7
2018-Apr-23 16:43 191 2 gusting 10 22.2
2018-Apr-23 16:33 152 5 gusting 11 22.2
2018-Apr-23 16:23 225 5 gusting 8 22.8
2018-Apr-23 16:13 187 5 gusting 8 22.8
2018-Apr-23 16:03 225 5 gusting 11 23.3
2018-Apr-23 15:53 260 5 gusting 10 23.3
2018-Apr-23 15:43 187 4 gusting 11 23.3
2018-Apr-23 15:33 257 4 gusting 10 23.9
2018-Apr-23 15:23 252 5 gusting 13 24.4
2018-Apr-23 15:13 259 6 gusting 13 24.4
2018-Apr-23 15:03 208 4 gusting 8 25.0
2018-Apr-23 14:53 199 3 gusting 8 25.6
2018-Apr-23 14:43 202 4 gusting 11 25.6
2018-Apr-23 14:33 188 2 gusting 8 25.6
2018-Apr-23 14:23 180 5 gusting 8 25.6
2018-Apr-23 14:13 315 5 gusting 10 25.6
2018-Apr-23 14:03 155 1 gusting 4 26.7
2018-Apr-23 13:53 314 1 gusting 7 26.7
2018-Apr-23 13:43 059 1 gusting 7 26.7
2018-Apr-23 13:33 081 1 gusting 2 27.2
2018-Apr-23 13:23 315 0 gusting 5 27.2
2018-Apr-23 13:13 071 1 gusting 6 27.2
2018-Apr-23 13:03 120 0 gusting 6 27.2
2018-Apr-23 12:53 045 2 gusting 6 27.2
2018-Apr-23 12:43 083 0 gusting 6 27.2
2018-Apr-23 12:33 27.2
2018-Apr-23 12:23 27.2
2018-Apr-23 12:13 006 1 gusting 5 27.2
2018-Apr-23 12:03 322 1 gusting 5 27.2
2018-Apr-23 11:53 240 1 gusting 5 27.2
2018-Apr-23 11:43 046 1 gusting 5 26.1
2018-Apr-23 11:33 054 1 gusting 5 26.7
2018-Apr-23 11:23 103 1 gusting 5 26.7
2018-Apr-23 11:13 189 0 gusting 2 26.7
2018-Apr-23 11:03 040 1 gusting 4 26.1
2018-Apr-23 10:53 132 1 gusting 2 26.1
2018-Apr-23 10:43 310 0 gusting 2 26.1
2018-Apr-23 10:33 342 1 gusting 4 25.6
2018-Apr-23 10:23 090 0 gusting 4 25.6
2018-Apr-23 10:13 135 0 gusting 2 26.1
2018-Apr-23 10:03 187 0 gusting 2 25.0
2018-Apr-23 09:53 180 1 gusting 5 24.4
2018-Apr-23 09:43 090 1 gusting 5 23.9
2018-Apr-23 09:33 075 1 gusting 4 23.9
2018-Apr-23 09:23 162 0 gusting 2 23.9
2018-Apr-23 09:13 208 1 gusting 4 23.3
2018-Apr-23 09:03 060 1 gusting 5 23.3
2018-Apr-23 08:53 268 1 gusting 5 22.8
2018-Apr-23 08:43 234 1 gusting 5 22.8
2018-Apr-23 08:33 188 1 gusting 5 22.2
2018-Apr-23 08:23 185 0 gusting 5 21.7
2018-Apr-23 08:13 192 2 gusting 5 21.7
2018-Apr-23 08:03 189 1 gusting 4 21.1
2018-Apr-23 07:53 135 2 gusting 4 21.1
2018-Apr-23 07:43 188 1 gusting 4 20.6
2018-Apr-23 07:33 172 0 gusting 5 20.0
2018-Apr-23 07:23 135 0 gusting 2 20.0
2018-Apr-23 07:13 240 0 gusting 2 19.4
2018-Apr-23 07:03 168 0 gusting 2 18.9
2018-Apr-23 06:53 157 0 gusting 2 18.3
2018-Apr-23 06:43 300 0 gusting 1 18.9
2018-Apr-23 06:33 051 18.3
2018-Apr-23 06:23 090 0 gusting 1 17.2
2018-Apr-23 06:13 119 0 gusting 0 17.2
2018-Apr-23 06:03 151 16.1
2018-Apr-23 05:53 192 0 gusting 0 15.0
2018-Apr-23 05:43 056 0 gusting 1 13.9
2018-Apr-23 05:33 180 12.8
2018-Apr-23 05:23 135 0 gusting 2 11.7
2018-Apr-23 05:13 163 0 gusting 1 10.6
2018-Apr-23 05:03 156 0 gusting 1 9.4
2018-Apr-23 04:53 137 9.4
2018-Apr-23 04:43 135 9.4
2018-Apr-23 04:33 135 0 gusting 1 9.4
2018-Apr-23 04:23 167 9.4
2018-Apr-23 04:13 135 1 gusting 2 8.9
2018-Apr-23 04:03 104 0 gusting 2 8.9
2018-Apr-23 03:53 100 0 gusting 2 8.9
2018-Apr-23 03:43 090 0 gusting 2 8.9
2018-Apr-23 03:23 135 0 gusting 2 8.9
2018-Apr-23 03:13 124 0 gusting 2 8.9
2018-Apr-23 03:03 128 0 gusting 2 9.4
2018-Apr-23 02:53 187 0 gusting 2 9.4
2018-Apr-23 02:43 091 0 gusting 2 9.4
2018-Apr-23 02:33 137 0 gusting 2 9.4
2018-Apr-23 02:23 090 0 gusting 2 9.4
2018-Apr-23 02:13 099 9.4
2018-Apr-23 02:03 090 0 gusting 1 9.4
2018-Apr-23 01:53 180 9.4
2018-Apr-23 01:43 106 1 gusting 2 9.4
2018-Apr-23 01:33 068 0 gusting 2 9.4
2018-Apr-23 01:23 102 0 gusting 2 9.4
2018-Apr-23 01:13 116 0 gusting 2 10.0
2018-Apr-23 01:03 135 0 gusting 2 10.0
2018-Apr-23 00:53 090 0 gusting 2 10.0
2018-Apr-23 00:43 123 0 gusting 2 10.6
2018-Apr-23 00:33 046 10.6
2018-Apr-23 00:23 102 0 gusting 2 10.6
2018-Apr-23 00:13 135 0 gusting 2 10.6
2018-Apr-23 00:03 185 10.6
2018-Apr-22 23:53 089 0 gusting 2 11.1
2018-Apr-22 23:43 135 0 gusting 1 11.1
2018-Apr-22 23:33 154 0 gusting 2 11.1
2018-Apr-22 23:23 090 1 gusting 2 11.1
2018-Apr-22 23:13 179 0 gusting 2 11.1
2018-Apr-22 23:03 226 1 gusting 2 11.1
2018-Apr-22 22:53 090 1 gusting 2 11.1
2018-Apr-22 22:43 357 0 gusting 2 10.6
2018-Apr-22 22:33 090 1 gusting 2 11.1
2018-Apr-22 22:23 165 0 gusting 2 11.1
2018-Apr-22 22:13 104 1 gusting 2 11.1
2018-Apr-22 22:03 132 0 gusting 2 11.1
2018-Apr-22 21:53 102 1 gusting 2 10.6
2018-Apr-22 21:43 090 0 gusting 4 10.6
2018-Apr-22 21:33 090 11.1
2018-Apr-22 21:23 315 0 gusting 1 11.7
2018-Apr-22 21:13 135 0 gusting 1 11.7
2018-Apr-22 21:03 110 0 gusting 2 11.7
2018-Apr-22 20:53 074 0 gusting 2 11.7
2018-Apr-22 20:43 141 0 gusting 2 12.2
2018-Apr-22 20:33 135 0 gusting 2 12.2
2018-Apr-22 20:23 100 1 gusting 2 12.8
2018-Apr-22 20:13 336 0 gusting 2 12.8
2018-Apr-22 20:03 090 0 gusting 1 12.2
2018-Apr-22 19:53 075 0 gusting 1 12.8
2018-Apr-22 19:43 126 0 gusting 2 12.8
2018-Apr-22 19:33 085 1 gusting 4 12.8
2018-Apr-22 19:23 140 0 gusting 2 12.8
2018-Apr-22 19:13 100 0 gusting 2 13.3
2018-Apr-22 19:03 090 2 gusting 2 14.4
2018-Apr-22 18:53 090 15.0
2018-Apr-22 18:43 150 16.1
2018-Apr-22 18:33 225 15.6
2018-Apr-22 18:23 135 0 gusting 1 15.6
2018-Apr-22 18:13 154 0 gusting 1 15.0
2018-Apr-22 18:03 111 0 gusting 2 15.6
2018-Apr-22 17:53 135 0 gusting 2 15.6
2018-Apr-22 17:43 090 1 gusting 2 15.6
2018-Apr-22 17:33 090 1 gusting 2 15.6
2018-Apr-22 17:23 171 0 gusting 2 16.7
2018-Apr-22 17:13 145 0 gusting 2 16.7
2018-Apr-22 17:03 090 1 gusting 2 17.8
2018-Apr-22 16:53 095 1 gusting 2 18.9
2018-Apr-22 16:43 165 0 gusting 2 20.0
2018-Apr-22 16:33 225 1 gusting 2 20.6
2018-Apr-22 16:23 225 0 gusting 6 20.6
2018-Apr-22 16:13 216 1 gusting 5 20.6
2018-Apr-22 16:03 210 2 gusting 5 20.0
2018-Apr-22 15:53 225 2 gusting 6 20.0
2018-Apr-22 15:43 20.6
2018-Apr-22 15:33 214 1 gusting 5 20.6
2018-Apr-22 15:23 222 1 gusting 5 20.6
2018-Apr-22 15:13 294 1 gusting 5 21.1
2018-Apr-22 15:03 194 2 gusting 5 21.1
2018-Apr-22 14:53 241 1 gusting 6 20.6
2018-Apr-22 14:43 225 4 gusting 7 20.6
2018-Apr-22 14:33 225 5 gusting 7 21.1
2018-Apr-22 14:23 225 4 gusting 8 20.6
2018-Apr-22 14:13 292 2 gusting 10 20.0
2018-Apr-22 14:03 135 2 gusting 8 20.0
2018-Apr-22 13:53 146 5 gusting 8 20.6
2018-Apr-22 13:43 166 4 gusting 11 21.7
2018-Apr-22 13:33 150 5 gusting 11 22.2
2018-Apr-22 13:23 288 5 gusting 11 22.8
2018-Apr-22 13:13 306 4 gusting 11 25.6
2018-Apr-22 13:03 346 2 gusting 6 25.6
2018-Apr-22 12:53 315 2 gusting 6 26.1
2018-Apr-22 12:43 099 1 gusting 6 25.6
2018-Apr-22 12:33 340 2 gusting 5 25.0
2018-Apr-22 12:23 007 3 gusting 6 25.0
2018-Apr-22 12:13 24.4
2018-Apr-22 12:03 24.4
2018-Apr-22 11:53 180 1 gusting 5 24.4
2018-Apr-22 11:43 034 3 gusting 6 25.0
2018-Apr-22 11:33 180 1 gusting 5 25.0
2018-Apr-22 11:23 24.4
2018-Apr-22 11:13 079 3 gusting 6 24.4
2018-Apr-22 11:03 073 2 gusting 6 23.9
2018-Apr-22 10:53 052 2 gusting 5 23.9
2018-Apr-22 10:43 006 3 gusting 6 23.3
2018-Apr-22 10:33 023 1 gusting 6 23.3
2018-Apr-22 10:23 010 2 gusting 6 22.8
2018-Apr-22 10:13 106 2 gusting 6 22.8
2018-Apr-22 10:03 064 2 gusting 5 22.2
2018-Apr-22 09:53 22.2
2018-Apr-22 09:43 332 1 gusting 4 22.2
2018-Apr-22 09:33 074 2 gusting 6 21.1
2018-Apr-22 09:23 045 1 gusting 5 21.1
2018-Apr-22 09:13 004 0 gusting 5 20.6
2018-Apr-22 09:03 008 2 gusting 7 20.0
2018-Apr-22 08:53 065 1 gusting 5 20.0
2018-Apr-22 08:43 277 0 gusting 4 19.4
2018-Apr-22 08:33 332 1 gusting 2 18.9
2018-Apr-22 08:23 181 0 gusting 2 18.3
2018-Apr-22 08:13 203 0 gusting 1 17.8
2018-Apr-22 08:03 087 0 gusting 2 16.7
2018-Apr-22 07:53 344 0 gusting 2 16.7
2018-Apr-22 07:43 115 0 gusting 2 16.1
2018-Apr-22 07:33 337 0 gusting 2 15.6
2018-Apr-22 07:23 340 0 gusting 4 15.6
2018-Apr-22 07:13 123 0 gusting 2 15.6
2018-Apr-22 07:03 197 0 gusting 2 15.6
2018-Apr-22 06:53 180 0 gusting 2 15.0
2018-Apr-22 06:43 200 0 gusting 2 15.0
2018-Apr-22 06:33 290 14.4
2018-Apr-22 06:23 076 0 gusting 4 13.9
2018-Apr-22 06:13 007 0 gusting 2 13.9
2018-Apr-22 06:03 348 0 gusting 2 13.3
2018-Apr-22 05:53 240 0 gusting 2 13.3
2018-Apr-22 05:43 060 0 gusting 2 12.8
2018-Apr-22 05:33 343 12.2
2018-Apr-22 05:23 326 0 gusting 1 11.7
2018-Apr-22 05:13 315 10.6
2018-Apr-22 05:03 180 10.6
2018-Apr-22 04:53 145 0 gusting 0 10.0
2018-Apr-22 04:43 067 10.0
2018-Apr-22 04:33 135 0 gusting 1 9.4
2018-Apr-22 04:23 135 1 gusting 2 9.4
2018-Apr-22 04:13 025 0 gusting 1 9.4
2018-Apr-22 04:03 110 1 gusting 2 9.4
2018-Apr-22 03:53 179 10.0
2018-Apr-22 03:43 090 9.4
2018-Apr-22 03:33 135 1 gusting 2 9.4
2018-Apr-22 03:23 135 0 gusting 1 10.0
2018-Apr-22 03:13 342 10.0
2018-Apr-22 03:03 126 10.0
2018-Apr-22 02:53 147 10.0
2018-Apr-22 02:43 135 0 gusting 0 10.0
2018-Apr-22 02:33 135 0 gusting 1 10.0
2018-Apr-22 02:23 112 0 gusting 2 10.0
2018-Apr-22 02:13 104 0 gusting 2 10.6
2018-Apr-22 02:03 135 0 gusting 2 10.6
2018-Apr-22 01:53 135 0 gusting 2 11.1
2018-Apr-22 01:43 090 1 gusting 2 11.7
2018-Apr-22 01:33 078 0 gusting 2 11.7
2018-Apr-22 01:23 090 2 gusting 2 11.7
2018-Apr-22 01:13 135 0 gusting 2 11.7
2018-Apr-22 01:03 092 0 gusting 2 12.2
2018-Apr-22 00:33 135 0 gusting 1 12.8
2018-Apr-22 00:23 135 12.8
2018-Apr-22 00:13 135 0 gusting 0 13.3
2018-Apr-22 00:03 090 0 gusting 0 13.3